Time,TemperatureF,DewpointF,PressureIn,WindDirection,WindDirectionDegrees,WindSpeedMPH,WindSpeedGustMPH,Humidity,HourlyPrecipIn,Conditions,Clouds,dailyrainin,SoftwareType,DateUTC
2013-01-10 00:12:00,28.1,25.0,30.49,NNW,329,0.0,0.0,89,0.00,,,0.00,weatherlink.com 1.10,2013-01-10 06:12:00,
2013-01-10 00:27:00,28.0,25.0,30.49,NNW,329,0.0,1.0,89,0.00,,,0.00,weatherlink.com 1.10,2013-01-10 06:27:00,
2013-01-10 00:42:00,26.7,24.0,30.47,NNW,329,0.0,2.0,88,0.00,,,0.00,weatherlink.com 1.10,2013-01-10 06:42:00,
2013-01-10 00:57:00,26.8,25.0,30.46,NNW,329,0.0,2.0,91,0.00,,,0.00,weatherlink.com 1.10,2013-01-10 06:57:00,
2013-01-10 01:12:00,28.1,25.0,30.46,NNW,329,0.0,0.0,89,0.00,,,0.00,weatherlink.com 1.10,2013-01-10 07:12:00,
2013-01-10 01:27:00,28.3,25.0,30.47,NNW,329,0.0,0.0,88,0.00,,,0.00,weatherlink.com 1.10,2013-01-10 07:27:00,
2013-01-10 01:42:00,27.1,24.0,30.45,NNW,329,1.0,1.0,87,0.00,,,0.00,weatherlink.com 1.10,2013-01-10 07:42:00,
2013-01-10 01:57:00,27.8,26.0,30.46,ENE,77,0.0,2.0,91,0.00,,,0.00,weatherlink.com 1.10,2013-01-10 07:57:00,
2013-01-10 02:12:00,28.6,26.0,30.47,SE,139,1.0,2.0,88,0.00,,,0.00,weatherlink.com 1.10,2013-01-10 08:12:00,
2013-01-10 02:27:00,28.5,25.0,30.47,SSE,161,1.0,4.0,88,0.00,,,0.00,weatherlink.com 1.10,2013-01-10 08:27:00,
2013-01-10 02:42:00,27.9,25.0,30.46,SSE,161,0.0,1.0,88,0.00,,,0.00,weatherlink.com 1.10,2013-01-10 08:42:00,
2013-01-10 02:57:00,28.6,26.0,30.48,SSE,161,0.0,2.0,89,0.00,,,0.00,weatherlink.com 1.10,2013-01-10 08:57:00,
2013-01-10 03:12:00,28.7,26.0,30.47,SSE,161,0.0,1.0,88,0.00,,,0.00,weatherlink.com 1.10,2013-01-10 09:12:00,
2013-01-10 03:27:00,28.7,25.0,30.47,SSE,161,0.0,0.0,87,0.00,,,0.00,weatherlink.com 1.10,2013-01-10 09:27:00,
2013-01-10 03:42:00,28.5,25.0,30.46,SSE,161,0.0,0.0,88,0.00,,,0.00,weatherlink.com 1.10,2013-01-10 09:42:00,
2013-01-10 03:57:00,28.2,25.0,30.45,SSE,161,0.0,1.0,87,0.00,,,0.00,weatherlink.com 1.10,2013-01-10 09:57:00,
2013-01-10 04:12:00,28.1,25.0,30.45,SSE,161,0.0,1.0,88,0.00,,,0.00,weatherlink.com 1.10,2013-01-10 10:12:00,
2013-01-10 04:28:00,28.1,25.0,30.44,SSE,161,0.0,2.0,88,0.00,,,0.00,weatherlink.com 1.10,2013-01-10 10:28:00,
2013-01-10 04:43:00,27.7,25.0,30.44,SE,144,0.0,3.0,88,0.00,,,0.00,weatherlink.com 1.10,2013-01-10 10:43:00,
2013-01-10 04:58:00,28.4,26.0,30.44,SE,144,0.0,2.0,89,0.00,,,0.00,weatherlink.com 1.10,2013-01-10 10:58:00,
2013-01-10 05:13:00,29.0,26.0,30.43,SE,144,0.0,1.0,87,0.00,,,0.00,weatherlink.com 1.10,2013-01-10 11:13:00,
2013-01-10 05:28:00,29.2,26.0,30.42,SE,144,3.0,4.0,88,0.00,,,0.00,weatherlink.com 1.10,2013-01-10 11:28:00,
2013-01-10 05:43:00,30.0,26.0,30.42,ESE,111,1.0,3.0,86,0.00,,,0.00,weatherlink.com 1.10,2013-01-10 11:43:00,
2013-01-10 05:58:00,30.0,26.0,30.42,ESE,111,0.0,2.0,85,0.00,,,0.00,weatherlink.com 1.10,2013-01-10 11:58:00,
2013-01-10 06:13:00,29.6,26.0,30.42,ESE,111,0.0,3.0,85,0.00,,,0.00,weatherlink.com 1.10,2013-01-10 12:13:00,
2013-01-10 06:28:00,29.8,26.0,30.43,ESE,111,1.0,4.0,85,0.00,,,0.00,weatherlink.com 1.10,2013-01-10 12:28:00,
2013-01-10 06:43:00,29.9,26.0,30.42,ESE,111,0.0,3.0,84,0.00,,,0.00,weatherlink.com 1.10,2013-01-10 12:43:00,
2013-01-10 06:58:00,29.7,25.0,30.42,ESE,111,3.0,3.0,84,0.00,,,0.00,weatherlink.com 1.10,2013-01-10 12:58:00,
2013-01-10 07:13:00,30.1,26.0,30.40,East,95,1.0,5.0,83,0.00,,,0.00,weatherlink.com 1.10,2013-01-10 13:13:00,
2013-01-10 07:28:00,30.2,25.0,30.40,East,82,3.0,5.0,82,0.00,,,0.00,weatherlink.com 1.10,2013-01-10 13:28:00,
2013-01-10 07:43:00,30.4,25.0,30.39,ENE,77,2.0,5.0,81,0.00,,,0.00,weatherlink.com 1.10,2013-01-10 13:43:00,
2013-01-10 07:58:00,31.0,26.0,30.39,ESE,103,2.0,5.0,80,0.00,,,0.00,weatherlink.com 1.10,2013-01-10 13:58:00,
2013-01-10 08:13:00,31.8,26.0,30.39,East,94,1.0,7.0,79,0.00,,,0.00,weatherlink.com 1.10,2013-01-10 14:13:00,
2013-01-10 08:28:00,32.6,26.0,30.38,ESE,105,0.0,6.0,77,0.00,,,0.00,weatherlink.com 1.10,2013-01-10 14:28:00,
2013-01-10 08:43:00,33.5,27.0,30.37,ESE,108,4.0,9.0,77,0.00,,,0.00,weatherlink.com 1.10,2013-01-10 14:43:00,
2013-01-10 08:58:00,34.3,27.0,30.36,East,85,5.0,7.0,76,0.00,,,0.00,weatherlink.com 1.10,2013-01-10 14:58:00,
2013-01-10 09:13:00,34.7,28.0,30.35,ENE,71,2.0,8.0,75,0.00,,,0.00,weatherlink.com 1.10,2013-01-10 15:13:00,
2013-01-10 09:28:00,35.1,28.0,30.34,East,86,0.0,5.0,75,0.00,,,0.00,weatherlink.com 1.10,2013-01-10 15:28:00,
2013-01-10 09:43:00,35.8,28.0,30.34,East,87,3.0,4.0,74,0.00,,,0.00,weatherlink.com 1.10,2013-01-10 15:43:00,
2013-01-10 09:58:00,36.6,29.0,30.33,ENE,69,2.0,7.0,73,0.00,,,0.00,weatherlink.com 1.10,2013-01-10 15:58:00,
2013-01-10 10:13:00,37.8,28.0,30.32,East,86,2.0,7.0,69,0.00,,,0.00,weatherlink.com 1.10,2013-01-10 16:13:00,
2013-01-10 10:28:00,38.8,29.0,30.30,NE,53,4.0,9.0,67,0.00,,,0.00,weatherlink.com 1.10,2013-01-10 16:28:00,
2013-01-10 10:44:00,40.1,28.0,30.29,ESE,107,5.0,13.0,62,0.00,,,0.00,weatherlink.com 1.10,2013-01-10 16:44:00,
2013-01-10 10:59:00,40.9,27.0,30.28,SE,129,5.0,14.0,59,0.00,,,0.00,weatherlink.com 1.10,2013-01-10 16:59:00,
2013-01-10 11:14:00,41.4,28.0,30.27,ESE,105,3.0,10.0,59,0.00,,,0.00,weatherlink.com 1.10,2013-01-10 17:14:00,
2013-01-10 11:29:00,42.0,28.0,30.25,ESE,115,11.0,15.0,57,0.00,,,0.00,weatherlink.com 1.10,2013-01-10 17:29:00,
2013-01-10 11:44:00,42.9,28.0,30.23,SE,124,5.0,13.0,55,0.00,,,0.00,weatherlink.com 1.10,2013-01-10 17:44:00,
2013-01-10 11:59:00,43.0,28.0,30.21,ESE,113,8.0,15.0,55,0.00,,,0.00,weatherlink.com 1.10,2013-01-10 17:59:00,
2013-01-10 12:14:00,42.9,28.0,30.20,ESE,107,3.0,15.0,57,0.00,,,0.00,weatherlink.com 1.10,2013-01-10 18:14:00,
2013-01-10 12:29:00,43.2,29.0,30.18,ESE,102,4.0,12.0,57,0.00,,,0.00,weatherlink.com 1.10,2013-01-10 18:29:00,
2013-01-10 12:44:00,43.3,30.0,30.17,ESE,117,2.0,9.0,59,0.00,,,0.00,weatherlink.com 1.10,2013-01-10 18:44:00,
2013-01-10 12:59:00,43.7,30.0,30.15,ESE,123,10.0,12.0,59,0.00,,,0.00,weatherlink.com 1.10,2013-01-10 18:59:00,
2013-01-10 13:14:00,44.1,30.0,30.14,SE,139,4.0,9.0,59,0.00,,,0.00,weatherlink.com 1.10,2013-01-10 19:14:00,
2013-01-10 13:29:00,44.6,31.0,30.13,SE,130,10.0,14.0,60,0.00,,,0.00,weatherlink.com 1.10,2013-01-10 19:29:00,
2013-01-10 13:44:00,44.8,34.0,30.13,SE,143,14.0,21.0,65,0.00,,,0.00,weatherlink.com 1.10,2013-01-10 19:44:00,
2013-01-10 13:59:00,42.0,37.0,30.12,SE,124,12.0,23.0,81,0.00,,,0.00,weatherlink.com 1.10,2013-01-10 19:59:00,
2013-01-10 14:14:00,40.5,37.0,30.11,ESE,109,7.0,15.0,88,0.00,,,0.00,weatherlink.com 1.10,2013-01-10 20:14:00,
2013-01-10 14:29:00,39.6,37.0,30.11,ESE,117,8.0,16.0,91,0.00,,,0.00,weatherlink.com 1.10,2013-01-10 20:29:00,
2013-01-10 14:44:00,39.4,37.0,30.10,ESE,111,4.0,13.0,92,0.00,,,0.00,weatherlink.com 1.10,2013-01-10 20:44:00,
2013-01-10 14:59:00,39.4,38.0,30.10,SE,131,9.0,13.0,93,0.00,,,0.00,weatherlink.com 1.10,2013-01-10 20:59:00,
2013-01-10 15:14:00,39.5,38.0,30.09,SE,135,10.0,16.0,93,0.00,,,0.00,weatherlink.com 1.10,2013-01-10 21:14:00,
2013-01-10 15:44:00,39.7,38.0,30.09,SE,134,10.0,15.0,94,0.00,,,0.00,weatherlink.com 1.10,2013-01-10 21:44:00,
2013-01-10 15:59:00,39.5,38.0,30.08,ESE,111,11.0,17.0,93,0.00,,,0.00,weatherlink.com 1.10,2013-01-10 21:59:00,
2013-01-10 16:15:00,39.2,38.0,30.07,ESE,109,13.0,16.0,94,0.00,,,0.00,weatherlink.com 1.10,2013-01-10 22:15:00,
2013-01-10 16:30:00,39.2,38.0,30.05,SE,125,8.0,17.0,94,0.00,,,0.00,weatherlink.com 1.10,2013-01-10 22:30:00,
2013-01-10 16:45:00,39.3,38.0,30.04,SE,128,6.0,16.0,95,0.01,,,0.01,weatherlink.com 1.10,2013-01-10 22:45:00,
2013-01-10 17:15:00,39.1,38.0,30.03,East,96,8.0,12.0,95,0.01,,,0.01,weatherlink.com 1.10,2013-01-10 23:15:00,
2013-01-10 17:30:00,39.3,38.0,30.02,East,100,7.0,11.0,95,0.01,,,0.01,weatherlink.com 1.10,2013-01-10 23:30:00,
2013-01-10 17:45:00,39.5,39.0,30.01,SE,138,6.0,14.0,96,0.00,,,0.01,weatherlink.com 1.10,2013-01-10 23:45:00,
2013-01-10 18:00:00,39.7,39.0,30.00,SE,135,6.0,14.0,96,0.00,,,0.01,weatherlink.com 1.10,2013-01-11 00:00:00,
2013-01-10 18:15:00,39.9,39.0,29.99,ESE,113,9.0,11.0,96,0.00,,,0.01,weatherlink.com 1.10,2013-01-11 00:15:00,
2013-01-10 18:30:00,40.2,39.0,29.98,East,96,8.0,11.0,96,0.00,,,0.01,weatherlink.com 1.10,2013-01-11 00:30:00,
2013-01-10 18:45:00,40.4,39.0,29.98,SSE,152,3.0,10.0,96,0.00,,,0.01,weatherlink.com 1.10,2013-01-11 00:45:00,
2013-01-10 19:00:00,40.6,40.0,29.96,East,91,10.0,10.0,96,0.01,,,0.02,weatherlink.com 1.10,2013-01-11 01:00:00,
2013-01-10 19:15:00,40.9,40.0,29.95,ESE,103,4.0,8.0,96,0.03,,,0.04,weatherlink.com 1.10,2013-01-11 01:15:00,
2013-01-10 19:30:00,41.1,40.0,29.95,SE,127,5.0,10.0,96,0.05,,,0.06,weatherlink.com 1.10,2013-01-11 01:30:00,
2013-01-10 19:45:00,41.3,40.0,29.94,South,172,7.0,12.0,96,0.10,,,0.11,weatherlink.com 1.10,2013-01-11 01:45:00,
2013-01-10 20:00:00,41.6,41.0,29.93,SE,130,4.0,10.0,96,0.13,,,0.15,weatherlink.com 1.10,2013-01-11 02:00:00,
2013-01-10 20:15:00,42.0,41.0,29.93,ESE,103,7.0,12.0,96,0.14,,,0.18,weatherlink.com 1.10,2013-01-11 02:15:00,
2013-01-10 20:30:00,42.2,41.0,29.92,SE,127,3.0,11.0,96,0.13,,,0.19,weatherlink.com 1.10,2013-01-11 02:30:00,
2013-01-10 20:45:00,42.4,42.0,29.92,East,92,8.0,12.0,97,0.08,,,0.19,weatherlink.com 1.10,2013-01-11 02:45:00,
2013-01-10 21:00:00,42.7,42.0,29.91,SE,134,9.0,15.0,96,0.03,,,0.19,weatherlink.com 1.10,2013-01-11 03:00:00,
2013-01-10 21:15:00,42.9,42.0,29.90,SSE,148,2.0,12.0,96,0.01,,,0.19,weatherlink.com 1.10,2013-01-11 03:15:00,
2013-01-10 21:30:00,43.1,42.0,29.88,ESE,119,5.0,14.0,96,0.00,,,0.19,weatherlink.com 1.10,2013-01-11 03:30:00,
2013-01-10 21:45:00,43.3,42.0,29.87,SE,141,0.0,8.0,96,0.01,,,0.20,weatherlink.com 1.10,2013-01-11 03:45:00,
2013-01-10 22:00:00,43.4,43.0,29.87,SSE,157,0.0,4.0,97,0.01,,,0.20,weatherlink.com 1.10,2013-01-11 04:00:00,
2013-01-10 22:15:00,43.5,43.0,29.86,SE,134,3.0,7.0,97,0.01,,,0.20,weatherlink.com 1.10,2013-01-11 04:15:00,
2013-01-10 22:30:00,43.9,43.0,29.85,SE,124,2.0,4.0,97,0.01,,,0.20,weatherlink.com 1.10,2013-01-11 04:30:00,
2013-01-10 22:45:00,44.4,44.0,29.84,SE,126,3.0,9.0,97,0.04,,,0.24,weatherlink.com 1.10,2013-01-11 04:45:00,
2013-01-10 23:15:00,45.9,45.0,29.82,SE,124,4.0,7.0,97,0.08,,,0.28,weatherlink.com 1.10,2013-01-11 05:15:00,
2013-01-10 23:30:00,47.1,46.0,29.80,ESE,119,3.0,10.0,97,0.11,,,0.32,weatherlink.com 1.10,2013-01-11 05:30:00,
2013-01-10 23:45:00,47.7,47.0,29.81,ESE,120,1.0,7.0,97,0.20,,,0.44,weatherlink.com 1.10,2013-01-11 05:45:00,